Location: Mountain Grove
(34.0887°N, 86.6172°W)
Time: 00:44:26
(UTC+00:00)

Cosmos 1140 Rocket - Pass Details

Date: 14 July 2020
Orbit: 744 x 768 km, 74.1° (Epoch: 12 August)

Event Time Altitude Azimuth Distance (km) Brightness Sun altitude
Exits shadow 07:32:17 59° 351° (N) 876 3.9 -29.5°
Drops below altitude 10° 07:36:36 10° 13° (NNE) 2,302 6.9 -29.1°
Sets 07:38:59 0° 15° (NNE) 3,234 7.9 -28.8°
